Flag for U.S.A. Weather past 2 weeks in Germantown, Maryland, U.S.A.

Now
36 °F

Partly sunny.


Feels Like: 28 °F
Forecast: 29 / 40 °F
Wind: 10 mph from Northwest

Location: Frederick Municipal Airport

Current Time: Dec 18, 2014 at 8:13:34 AM

Latest Report: Dec 18, 2014 at 7:45 AM


Visibility: 10 mi

Pressure: 30.19 "Hg

Humidity: 48%

Dew point: 18 °F

Location of GermantownLocation

Historic Weather in Germantown — Graph

°F

Germantown temperature yesterday

Maximum temperature yesterday: 54 °F (at 12:45 PM)
Minimum temperature yesterday: 37 °F (at 4:25 AM)
Average temperature yesterday: 43 °F

Past Weeks' High & Low Weather Summary

 TemperatureHumidityPressure
High59 °F (Dec 15, 1:55 PM)93% (Dec 9, 1:20 AM)30.85 "Hg (Dec 9, 1:20 AM)
Low27 °F (Dec 13, 6:50 AM)20% (Dec 11, 9:50 PM)29.83 "Hg (Dec 11, 5:10 AM)
Average40 °F65%30.17 "Hg
* Reported Dec 3 6:50 AM — Dec 18 6:50 AM, Germantown, Weather by CustomWeather, © 2014

Note: Actual official high and low records may vary slightly from our data, if they occured in-between our weather recording intervals... More about our weather records

Advertising

Germantown weather history for previous 24 hours

 ConditionsComfort  
Time TempWeatherWind HumidityBarometerVisibility
6:50 AM
Dec 18
34 °FPassing clouds.8 mph51%30.16 "Hg10 mi
5:30 AM34 °FPassing clouds.7 mph51%30.15 "Hg10 mi
5:25 AM34 °FPassing clouds.10 mph51%30.15 "Hg10 mi
5:05 AM36 °FPassing clouds.14 mph48%30.14 "Hg10 mi
4:45 AM36 °FPassing clouds.17 mph48%30.13 "Hg10 mi
4:25 AM36 °FOvercast.15 mph48%30.13 "Hg10 mi
4:05 AM36 °FOvercast.No wind52%30.13 "Hg10 mi
3:45 AM36 °FOvercast.5 mph52%30.12 "Hg10 mi
3:25 AM37 °FOvercast.9 mph48%30.12 "Hg10 mi
3:05 AM37 °FOvercast.12 mph48%30.11 "Hg10 mi
2:45 AM37 °FOvercast.14 mph48%30.12 "Hg10 mi
2:25 AM37 °FMostly cloudy.13 mph48%30.11 "Hg10 mi
2:05 AM37 °FOvercast.10 mph52%30.11 "Hg10 mi
1:45 AM37 °FMostly cloudy.9 mph52%30.10 "Hg10 mi
1:25 AM37 °FOvercast.10 mph48%30.11 "Hg10 mi
1:05 AM37 °FOvercast.9 mph52%30.11 "Hg10 mi
12:45 AM37 °FOvercast.16 mph48%30.11 "Hg10 mi
12:25 AM37 °FOvercast.10 mph52%30.10 "Hg10 mi
12:05 AM37 °FOvercast.10 mph48%30.10 "Hg10 mi
11:45 PM
Dec 17
37 °FOvercast.10 mph48%30.10 "Hg10 mi
11:25 PM37 °FPassing clouds.9 mph48%30.10 "Hg10 mi
10:25 PM37 °FClear.17 mph52%30.08 "Hg10 mi
9:45 PM39 °FOvercast.9 mph48%30.09 "Hg10 mi
9:25 PM39 °FOvercast.15 mph48%30.10 "Hg10 mi
9:05 PM41 °FOvercast.15 mph45%30.10 "Hg10 mi
8:45 PM41 °FOvercast.13 mph45%30.09 "Hg10 mi
8:25 PM41 °FOvercast.10 mph49%30.09 "Hg10 mi
8:05 PM39 °FOvercast.No wind52%30.08 "Hg10 mi
7:45 PM39 °FPassing clouds.8 mph52%30.08 "Hg10 mi
6:45 PM39 °FPassing clouds.13 mph52%30.06 "Hg10 mi
6:00 PM43 °FClear.12 mph46%30.05 "Hg10 mi
4:45 PM46 °FPartly sunny.13 mph43%30.05 "Hg10 mi
3:45 PM46 °FPartly sunny.12 mph43%30.03 "Hg10 mi
2:57 PM48 °FScattered clouds.13 mph43%30.02 "Hg10 mi
1:45 PM50 °FPartly sunny.8 mph40%30.00 "Hg10 mi
12:45 PM54 °FPartly sunny.16 mph38%30.00 "Hg10 mi
11:45 AM52 °FScattered clouds.22 mph50%30.11 "Hg10 mi
8:59 AM50 °FScattered clouds.12 mph62%30.01 "Hg10 mi
Weather by CustomWeather, © 2014

See weather overviewHow to use our weather pages